[[{"header":{"parameterUnit":"m.s-1","parameterCategory":1,"la1":30.2991,"la2":30.254,"lo1":-89.0895,"lo2":-89.0444,"dy":0.0017,"dx":0.0017,"nx":28,"ny":28,"refTime":"2025-03-27T03:00:00:Z","depth":0,"parameterNumber":2,"parameterNumberName":"U-component_of_WINDS"},"data":[0,0,0,0,0,0,0,0,0,0,0,0,0,0,0,0,0,0,0,0,0,0,0,0,0,0,0,0,0,0,0,0,0,0,0,0,0,0,0,0,0,0,0,0,0,0,0,0,0,0,0,0,0,0,0,0,0,0,-1.0604,-1.0604,0,-1.0612,-1.0612,-1.0612,-1.0574,-1.0573,-1.0572,-1.057,-1.0581,-1.0582,-1.0583,0,0,0,0,0,0,0,0,0,0,0,0,0,-1.0557,-1.0558,-1.0604,-1.0604,-1.0604,-1.0612,-1.0612,-1.0612,-1.0574,-1.0573,-1.0571,-1.057,-1.058,-1.0582,-1.0583,0,0,0,0,0,0,0,0,0,0,0,0,0,-1.0572,-1.0558,-1.0604,-1.0586,-1.0584,-1.0612,-1.0612,-1.0612,-1.0574,-1.0573,-1.0571,-1.0569,-1.058,-1.0582,-1.0584,-1.0629,0,0,-1.059,-1.059,0,0,0,0,0,0,0,0,-1.0571,-1.0574,-1.0588,-1.0587,-1.0585,-1.059,-1.0599,-1.0618,-1.0575,-1.0578,-1.057,-1.0569,-1.0585,-1.0587,-1.0592,-1.063,-1.063,-1.059,-1.0591,-1.0592,-1.0592,0,0,0,0,0,0,0,-1.057,-1.0573,-1.0607,-1.0589,-1.0587,-1.0578,-1.0578,-1.0602,-1.0591,-1.0578,-1.0575,-1.0576,-1.0584,-1.059,-1.0592,-1.063,-1.059,-1.0591,-1.0593,-1.0593,-1.0705,-1.0707,0,0,0,0,0,0,-1.0571,-1.0573,-1.0607,-1.0607,-1.0574,-1.058,-1.058,-1.059,-1.0591,-1.0589,-1.0578,-1.0574,-1.0588,-1.059,-1.0592,-1.0645,-1.0592,-1.0594,-1.0595,-1.0703,-1.0706,-1.0707,0,0,0,0,0,0,-1.0571,-1.0575,-1.0606,-1.0589,-1.0592,-1.0583,-1.0594,-1.0591,-1.0597,-1.0591,-1.0589,-1.0586,-1.0586,-1.0589,-1.062,-1.0645,-1.0594,-1.0596,-1.0701,-1.0704,-1.0707,-1.0753,0,0,0,0,0,0,-1.0569,-1.0575,-1.0592,-1.059,-1.0594,-1.0634,-1.0595,-1.0593,-1.06,-1.0596,-1.0598,-1.0596,-1.0585,-1.0617,-1.0622,-1.0647,-1.0598,-1.0699,-1.0702,-1.0706,-1.0749,-1.0757,-1.0763,0,0,0,0,0,-1.0568,-1.0605,-1.0593,-1.0597,-1.0615,-1.0635,-1.0638,-1.0624,-1.0603,-1.062,-1.0615,-1.0596,-1.0641,-1.0621,-1.0626,-1.0652,-1.0697,-1.0702,-1.0705,-1.0746,-1.0755,-1.0763,0,0,0,0,0,0,-1.0611,-1.0604,-1.0591,-1.0628,-1.0633,-1.0629,-1.065,-1.0634,-1.0645,-1.0641,-1.0623,-1.0624,-1.0658,-1.0658,-1.0635,-1.0696,-1.0666,-1.0671,-1.0695,-1.0704,-1.0711,-1.0711,-1.0599,0,0,0,0,0,-1.0625,-1.0642,-1.0635,-1.0669,-1.0672,-1.0661,-1.0669,-1.0658,-1.0662,-1.0664,-1.0662,-1.0667,-1.0682,-1.0693,-1.0706,-1.0748,-1.0748,-1.0768,-1.0776,-1.0782,-1.0787,-1.0809,-1.0818,-1.0721,-1.0721,-1.0721,0,0,-1.0654,-1.0652,-1.0664,-1.0678,-1.0679,-1.0698,-1.0663,-1.0684,-1.0697,-1.0667,-1.0696,-1.0694,-1.0699,-1.0735,-1.0751,-1.0736,-1.0813,-1.0787,-1.0791,-1.0793,-1.0814,-1.0823,-1.0831,-1.0723,-1.0723,-1.0723,0,0,-1.0716,-1.0716,-1.0744,-1.0747,-1.075,-1.0742,-1.0749,-1.0747,-1.0745,-1.0773,-1.0751,-1.0767,-1.0794,-1.0798,-1.0803,-1.0866,-1.0849,-1.0871,-1.0909,-1.093,-1.0938,-1.0945,-1.0968,-1.0976,-1.0875,-1.0876,-1.0876,0,-1.0752,-1.0779,-1.0761,-1.0784,-1.079,-1.0762,-1.0791,-1.0794,-1.0802,-1.0807,-1.079,-1.0823,-1.0824,-1.0861,-1.0876,-1.0881,-1.0889,-1.0871,-1.0938,-1.0945,-1.0951,-1.0972,-1.0981,-1.0878,-1.0878,-1.0878,-1.0877,0,-1.0823,-1.0841,-1.0864,-1.0871,-1.088,-1.0905,-1.0892,-1.0903,-1.0891,-1.0885,-1.0914,-1.0914,-1.0927,-1.0935,-1.0923,-1.097,-1.0961,-1.0941,-1.0911,-1.0963,-1.0983,-1.0991,-1.0882,-1.0881,-1.088,-1.088,0,0,-1.0914,-1.091,-1.0919,-1.0922,-1.0922,-1.0937,-1.0961,-1.0973,-1.0983,-1.0989,-1.1009,-1.1031,-1.1013,-1.1019,-1.1008,-1.1027,-1.1076,-1.1004,-1.1004,-1.1018,-1.1129,-1.1144,-1.1154,-1.1064,-1.1066,-1.1067,-1.1128,0,-1.0976,-1.1016,-1.1001,-1.1043,-1.106,-1.1033,-1.1054,-1.1057,-1.1051,-1.1065,-1.106,-1.1076,-1.105,-1.1054,-1.1071,-1.1067,-1.1098,-1.1062,-1.1084,-1.1085,-1.1084,-1.1164,-1.1181,-1.1239,-1.1136,-1.1137,-1.1138,0,-1.1054,-1.1062,-1.1105,-1.1102,-1.1109,-1.1128,-1.1137,-1.115,-1.1153,-1.1148,-1.1154,-1.1138,-1.1162,-1.1131,-1.1163,-1.1139,-1.1146,-1.1145,-1.1147,-1.115,-1.1115,-1.117,-1.1257,-1.1266,-1.115,-1.1149,-1.1148,0,-1.1117,-1.1138,-1.1167,-1.117,-1.1167,-1.1181,-1.1181,-1.1182,-1.119,-1.1198,-1.1203,-1.1214,-1.122,-1.1229,-1.1217,-1.1195,-1.1251,-1.1219,-1.1248,-1.1249,-1.1262,-1.1262,-1.1353,-1.1266,-1.1266,-1.1266,-1.1265,0,-1.1188,-1.1216,-1.1195,-1.1213,-1.1243,-1.1225,-1.1256,-1.1252,-1.1253,-1.127,-1.1247,-1.1263,-1.1245,-1.126,-1.125,-1.1279,-1.1282,-1.1278,-1.1276,-1.1281,-1.1282,-1.1287,-1.1283,-1.1268,-1.1267,-1.1267,-1.1267,0,-1.1265,-1.1252,-1.1281,-1.1276,-1.1275,-1.1297,-1.1293,-1.1309,-1.1301,-1.1323,-1.1327,-1.1316,-1.1332,-1.132,-1.1336,-1.1329,-1.1367,-1.1358,-1.1366,-1.1364,-1.1394,-1.1392,-1.1492,-1.1505,-1.1409,-1.141,-1.1411,0,-1.1311,-1.1332,-1.1328,-1.1337,-1.1338,-1.1353,-1.1361,-1.1343,-1.1352,-1.1356,-1.1372,-1.1386,-1.1396,-1.1423,-1.1416,-1.1429,-1.142,-1.1455,-1.1422,-1.1427,-1.1422,-1.1421,-1.1423,-1.1462,-1.1463,-1.1464,-1.1465,0,-1.1396,-1.1388,-1.14,-1.1409,-1.1419,-1.1425,-1.143,-1.1439,-1.1421,-1.1432,-1.1448,-1.1456,-1.1471,-1.1486,-1.1495,-1.1495,-1.1477,-1.1475,-1.1482,-1.1488,-1.1492,-1.1491,-1.1385,-1.1473,-1.1472,-1.1471,-1.1471,-1.1471,-1.146,-1.1477,-1.1476,-1.149,-1.1491,-1.1496,-1.1511,-1.1504,-1.1517,-1.1528,-1.1516,-1.1536,-1.1537,-1.1548,-1.1549,-1.1564,-1.155,-1.1561,-1.1564,-1.1567,-1.1571,-1.1489,-1.1566,-1.1566,-1.1565,-1.1565,-1.1565,0,-1.1544,-1.1542,-1.1554,-1.1561,-1.1571,-1.1552,-1.1556,-1.1567,-1.1583,-1.1586,-1.1596,-1.1613,-1.1627,-1.1621,-1.1632,-1.1645,-1.1638,-1.1649,-1.1649,-1.1649,-1.1583,-1.1576,-1.1655,-1.1655,-1.1655,-1.1655,-1.1655,-1.1655,-1.1589,-1.1616,-1.1608,-1.1636,-1.1634,-1.1652,-1.1656,-1.166,-1.1662,-1.1682,-1.1693,-1.1688,-1.1687,-1.1698,-1.171,-1.1708,-1.1713,-1.1728,-1.1723,-1.1662,-1.1654,-1.1645,-1.1638,-1.1729,-1.1729,-1.1788,-1.1788,-1.1789]},{"header":{"parameterUnit":"m.s-1","parameterCategory":1,"la1":30.2991,"la2":30.254,"lo1":-89.0895,"lo2":-89.0444,"dy":0.0017,"dx":0.0017,"nx":28,"ny":28,"refTime":"2025-03-27T03:00:00:Z","depth":0,"parameterNumber":3,"parameterNumberName":"V-component_of_WINDS"},"data":[0,0,0,0,0,0,0,0,0,0,0,0,0,0,0,0,0,0,0,0,0,0,0,0,0,0,0,0,0,0,0,0,0,0,0,0,0,0,0,0,0,0,0,0,0,0,0,0,0,0,0,0,0,0,0,0,0,0,-1.7115,-1.7116,0,-1.7154,-1.7154,-1.7155,-1.715,-1.7149,-1.7149,-1.7148,-1.7184,-1.7186,-1.7187,0,0,0,0,0,0,0,0,0,0,0,0,0,-1.7035,-1.7036,-1.7115,-1.7116,-1.7116,-1.7154,-1.7154,-1.7155,-1.715,-1.7149,-1.7148,-1.7148,-1.7184,-1.7186,-1.7188,0,0,0,0,0,0,0,0,0,0,0,0,0,-1.7071,-1.7037,-1.7115,-1.7118,-1.7119,-1.7154,-1.7154,-1.7155,-1.715,-1.7149,-1.7148,-1.7147,-1.7183,-1.7186,-1.7188,-1.7221,0,0,-1.7195,-1.7196,0,0,0,0,0,0,0,0,-1.7069,-1.7074,-1.7117,-1.7118,-1.7119,-1.7146,-1.7139,-1.7177,-1.715,-1.7138,-1.7148,-1.7147,-1.7172,-1.7175,-1.7185,-1.7222,-1.7224,-1.7195,-1.7197,-1.7198,-1.7198,0,0,0,0,0,0,0,-1.7066,-1.7072,-1.713,-1.7118,-1.7119,-1.7117,-1.7121,-1.7146,-1.716,-1.7139,-1.7139,-1.7144,-1.7172,-1.7182,-1.7185,-1.7224,-1.7195,-1.7197,-1.7199,-1.7199,-1.7292,-1.7293,0,0,0,0,0,0,-1.7063,-1.707,-1.7129,-1.7131,-1.7091,-1.7119,-1.7124,-1.7138,-1.716,-1.7162,-1.7144,-1.7143,-1.7179,-1.7183,-1.7187,-1.7227,-1.7198,-1.72,-1.7201,-1.729,-1.7292,-1.7293,0,0,0,0,0,0,-1.7062,-1.7069,-1.7127,-1.7101,-1.7108,-1.7122,-1.7138,-1.7139,-1.7149,-1.7164,-1.7166,-1.7152,-1.7178,-1.7183,-1.7213,-1.7228,-1.7201,-1.7203,-1.7289,-1.7291,-1.7292,-1.7307,0,0,0,0,0,0,-1.7059,-1.7068,-1.7081,-1.7101,-1.711,-1.7154,-1.7139,-1.7141,-1.7154,-1.7153,-1.7171,-1.7174,-1.7178,-1.7209,-1.7215,-1.7231,-1.7205,-1.7288,-1.729,-1.7292,-1.7305,-1.7309,-1.7312,0,0,0,0,0,-1.7057,-1.7083,-1.7082,-1.7089,-1.7126,-1.7154,-1.7159,-1.7164,-1.7155,-1.7168,-1.7177,-1.7173,-1.7225,-1.7212,-1.7219,-1.7235,-1.7287,-1.7289,-1.7292,-1.7304,-1.7308,-1.7312,0,0,0,0,0,0,-1.7063,-1.7086,-1.7085,-1.7119,-1.7135,-1.7154,-1.717,-1.7169,-1.7187,-1.7185,-1.719,-1.7194,-1.7224,-1.7232,-1.7217,-1.7268,-1.7255,-1.7259,-1.7262,-1.7266,-1.7269,-1.7267,-1.7207,0,0,0,0,0,-1.7069,-1.7091,-1.7109,-1.7137,-1.7145,-1.7157,-1.7169,-1.7172,-1.7188,-1.7195,-1.7206,-1.7221,-1.7241,-1.7254,-1.7273,-1.7307,-1.731,-1.7321,-1.7325,-1.7327,-1.733,-1.7349,-1.7354,-1.7301,-1.7301,-1.7301,0,0,-1.7081,-1.7096,-1.7109,-1.7139,-1.7152,-1.7174,-1.7162,-1.7185,-1.7201,-1.7198,-1.7226,-1.7235,-1.7253,-1.7284,-1.7299,-1.7292,-1.7346,-1.733,-1.7333,-1.7334,-1.7352,-1.7357,-1.7361,-1.7302,-1.7302,-1.7302,0,0,-1.7113,-1.7126,-1.7152,-1.7165,-1.7185,-1.7193,-1.7199,-1.7218,-1.7224,-1.7253,-1.7251,-1.727,-1.7304,-1.7317,-1.7327,-1.7366,-1.7362,-1.7371,-1.7389,-1.7407,-1.7411,-1.7415,-1.7429,-1.7433,-1.7375,-1.7375,-1.7375,0,-1.7124,-1.7158,-1.7164,-1.7189,-1.7202,-1.7201,-1.7226,-1.7238,-1.7263,-1.7272,-1.7265,-1.7308,-1.732,-1.7355,-1.7364,-1.7373,-1.7379,-1.7369,-1.741,-1.7414,-1.7418,-1.7431,-1.7436,-1.7376,-1.7375,-1.7375,-1.7375,0,-1.7171,-1.7194,-1.7212,-1.7238,-1.7253,-1.7277,-1.7287,-1.7301,-1.7303,-1.7311,-1.7341,-1.7355,-1.7377,-1.7385,-1.7387,-1.742,-1.7416,-1.7409,-1.7396,-1.7424,-1.7436,-1.7441,-1.7377,-1.7377,-1.7376,-1.7376,0,0,-1.7208,-1.7238,-1.7244,-1.7256,-1.7278,-1.7296,-1.732,-1.7343,-1.7356,-1.7373,-1.7393,-1.7423,-1.7417,-1.743,-1.7432,-1.7448,-1.7477,-1.744,-1.744,-1.7446,-1.7515,-1.752,-1.7525,-1.7476,-1.7477,-1.7477,-1.7514,0,-1.7242,-1.7287,-1.7294,-1.7332,-1.7354,-1.7354,-1.7375,-1.739,-1.7399,-1.7417,-1.7426,-1.7447,-1.7438,-1.7446,-1.7461,-1.7471,-1.7491,-1.7468,-1.7494,-1.7495,-1.7489,-1.7532,-1.7537,-1.757,-1.7519,-1.7519,-1.752,0,-1.7288,-1.7308,-1.7349,-1.737,-1.7379,-1.7398,-1.742,-1.7438,-1.7456,-1.746,-1.7475,-1.7476,-1.7501,-1.7486,-1.752,-1.7504,-1.7515,-1.7521,-1.7523,-1.7525,-1.7509,-1.7535,-1.7581,-1.7586,-1.7528,-1.7527,-1.7526,0,-1.7311,-1.7348,-1.7378,-1.7388,-1.7412,-1.7426,-1.7436,-1.7453,-1.7467,-1.7485,-1.7494,-1.7515,-1.7526,-1.7542,-1.7548,-1.7537,-1.7582,-1.7568,-1.7586,-1.7586,-1.7595,-1.7594,-1.7643,-1.7602,-1.7602,-1.7602,-1.7602,0,-1.7349,-1.7374,-1.7389,-1.7407,-1.7435,-1.7442,-1.7469,-1.7479,-1.7495,-1.7514,-1.7515,-1.7533,-1.754,-1.7559,-1.7565,-1.7592,-1.7597,-1.7601,-1.7602,-1.7601,-1.76,-1.7608,-1.7605,-1.7603,-1.7603,-1.7603,-1.7602,0,-1.7379,-1.739,-1.7422,-1.7443,-1.7449,-1.7468,-1.7486,-1.7503,-1.7511,-1.7536,-1.7542,-1.7555,-1.7578,-1.7586,-1.7613,-1.7616,-1.7648,-1.7647,-1.7642,-1.7642,-1.766,-1.7658,-1.7715,-1.7723,-1.7677,-1.7677,-1.7678,0,-1.7402,-1.7421,-1.7445,-1.7459,-1.747,-1.7492,-1.7506,-1.7514,-1.7529,-1.7551,-1.7565,-1.7588,-1.7607,-1.7643,-1.7654,-1.7675,-1.7674,-1.7693,-1.7677,-1.7676,-1.7674,-1.7673,-1.7675,-1.7695,-1.7696,-1.7696,-1.7697,0,-1.7442,-1.7447,-1.7468,-1.7491,-1.7508,-1.7526,-1.7544,-1.7555,-1.7566,-1.7582,-1.7606,-1.762,-1.7649,-1.7671,-1.7693,-1.7702,-1.7701,-1.7702,-1.7707,-1.7706,-1.7702,-1.7704,-1.765,-1.77,-1.77,-1.77,-1.7699,-1.7699,-1.7469,-1.7487,-1.7506,-1.753,-1.7544,-1.7561,-1.7578,-1.759,-1.761,-1.7635,-1.7638,-1.7663,-1.7681,-1.771,-1.7721,-1.774,-1.7735,-1.7742,-1.7744,-1.7746,-1.7747,-1.77,-1.7744,-1.7744,-1.7744,-1.7744,-1.7744,0,-1.7509,-1.7522,-1.7544,-1.7569,-1.7588,-1.7586,-1.7606,-1.7621,-1.7644,-1.7661,-1.768,-1.7707,-1.7729,-1.7742,-1.7764,-1.7777,-1.7777,-1.7783,-1.7782,-1.7784,-1.7751,-1.7744,-1.7782,-1.7782,-1.7782,-1.7782,-1.7782,-1.7782,-1.7532,-1.7562,-1.7569,-1.7606,-1.7618,-1.7644,-1.7656,-1.7671,-1.7685,-1.7716,-1.7734,-1.7743,-1.7759,-1.7782,-1.7802,-1.7805,-1.7813,-1.7819,-1.7822,-1.779,-1.7786,-1.7782,-1.7776,-1.7821,-1.7821,-1.7853,-1.7854,-1.7854]}]]